Location: Newark
(49.2167°N, 0.8667°E)
Time: 16:24:36
(UTC+00:00)

N. Korean satellite - Visible Passes

Search period start: 20 November 2019 00:00
Search period end: 30 November 2019 00:00
Orbit: 456 x 506 km, 97.2° (Epoch: 20 November)

Date Brightness Start Highest point End Pass type
(mag) Time Alt. Az. Time Alt. Az. Time Alt. Az.
20 Nov 7.4 05:42:49 10° NNE 05:46:30 56° E 05:50:06 10° S visible
20 Nov 9.7 17:56:27 10° SW 17:59:04 18° W 18:01:43 10° NW visible
21 Nov 8.8 05:17:44 10° NNE 05:21:01 29° E 05:24:13 10° SSE visible
21 Nov 8.5 17:30:08 10° SSW 17:33:29 33° W 17:36:54 10° NNW visible
22 Nov 9.8 04:53:05 10° NE 04:55:24 16° E 04:57:42 10° SE visible
22 Nov 6.9 06:25:30 10° N 06:29:04 46° WNW 06:32:34 10° SW visible
22 Nov 7.1 17:04:22 10° S 17:08:01 67° W 17:11:44 10° NNW visible
23 Nov 6.6 06:00:00 10° NNE 06:03:43 90° ENE 06:07:21 10° SSW visible
23 Nov 6.6 16:38:59 10° SSE 16:42:37 62° ENE 16:46:19 10° N visible
23 Nov 10.1 18:14:53 10° WSW 18:16:26 12° W 18:17:58 10° WNW visible
24 Nov 7.8 05:34:42 10° NNE 05:38:16 44° E 05:41:46 10° S visible
24 Nov 9.4 17:47:51 10° SW 17:50:47 22° W 17:53:46 10° NW visible
25 Nov 9.1 05:09:42 10° NE 05:12:44 23° E 05:15:43 10° SSE visible
25 Nov 7.4 06:42:54 10° N 06:46:09 30° WNW 06:49:21 10° SW visible
25 Nov 8.1 17:21:44 10° S 17:25:14 41° W 17:28:48 10° NNW visible
26 Nov 10.0 04:45:21 10° ENE 04:47:05 13° E 04:48:48 10° ESE visible
26 Nov 6.6 06:17:14 10° N 06:20:51 56° WNW 06:24:24 10° SSW visible
26 Nov 6.7 16:56:05 10° SSE 16:59:47 83° WSW 17:03:32 10° NNW visible
27 Nov 6.8 05:51:48 10° NNE 05:55:28 73° ESE 05:59:04 10° S visible
27 Nov 6.8 16:30:49 10° SSE 16:34:25 50° ENE 16:38:03 10° N visible
27 Nov 9.9 18:05:55 10° SW 18:08:06 15° W 18:10:17 10° NW visible
28 Nov 8.3 05:26:34 10° NNE 05:30:00 36° E 05:33:20 10° SSE visible
28 Nov 9.0 17:39:18 10° SSW 17:42:29 27° W 17:45:42 10° NW visible
29 Nov 9.4 05:01:42 10° NE 05:04:24 19° E 05:07:04 10° SE visible
29 Nov 7.2 06:34:33 10° N 06:37:56 35° WNW 06:41:15 10° SW visible
29 Nov 7.6 17:13:20 10° S 17:16:58 51° W 17:20:37 10° NNW visible
